SPACEBEENZ-2 (46957 NORAD) Tracking and Keplerian Element Data

This shows tracking and keplerian element data for the satellite.

Feedback or suggestion? Click here.




ElementValue
Catalog46957
NameSPACEBEENZ-2
Epoch Orbit934
Epoch Day20.82657643
Epoch Year2021
RAAN160.1842
Inclination97.3747
Eccentricity0.0017919
Argument of Perigee84.0868
Mean Anonmoly276.241
Mean Motion15.2143804
Decay Rate2.404E-05
L11 46957U 20085AE 21020.82657643 .00002404 00000-0 10968-3 0 9999
L22 46957 97.3747 160.1842 0017919 84.0868 276.2410 15.21438040 9349

Live tracking and technical data element details for SPACEBEENZ-2 (NORAD 46957). SPACEBEENZ-2 can be tracked NOW for your location showing map with azimuth and elevation plus other details from your city location.

Track the satellite on the map from your city or location and see movement details for azimuth, elevation, latitude, longitude, range, height, and movement on the map or in text.







IsCatalogInMostPopularTable: catalog: 46957, numindb: 20
Update: records affected: 1



GetName: 46957 SPACEBEENZ-2

Hit Count: updated at: Fri, 22 Jan 2021 19:43:53 GMT